Time,TemperatureF,DewpointF,PressureIn,WindDirection,WindDirectionDegrees,WindSpeedMPH,WindSpeedGustMPH,Humidity,HourlyPrecipIn,Conditions,Clouds,dailyrainin,SolarRadiationWatts/m^2,SoftwareType,DateUTC
2013-03-05 00:14:00,44.9,43.0,30.07,SE,140,2.0,5.0,94,0.00,,,0.00,0,weatherlink.com 1.10,2013-03-05 08:14:00,
2013-03-05 00:29:00,44.4,43.0,30.07,SE,134,4.0,8.0,94,0.00,,,0.00,0,weatherlink.com 1.10,2013-03-05 08:29:00,
2013-03-05 00:44:00,44.3,43.0,30.08,SE,133,5.0,7.0,94,0.00,,,0.00,0,weatherlink.com 1.10,2013-03-05 08:44:00,
2013-03-05 00:59:00,44.5,43.0,30.08,SE,134,1.0,5.0,94,0.00,,,0.00,0,weatherlink.com 1.10,2013-03-05 08:59:00,
2013-03-05 01:29:00,44.7,43.0,30.08,SE,129,1.0,5.0,94,0.00,,,0.00,0,weatherlink.com 1.10,2013-03-05 09:29:00,
2013-03-05 01:44:00,44.3,43.0,30.08,South,186,0.0,1.0,94,0.00,,,0.00,0,weatherlink.com 1.10,2013-03-05 09:44:00,
2013-03-05 01:59:00,44.6,43.0,30.08,SE,130,2.0,5.0,94,0.00,,,0.00,0,weatherlink.com 1.10,2013-03-05 09:59:00,
2013-03-05 02:15:00,44.6,43.0,30.07,SE,128,1.0,5.0,94,0.00,,,0.00,0,weatherlink.com 1.10,2013-03-05 10:15:00,
2013-03-05 02:30:00,44.2,42.0,30.07,ESE,111,2.0,6.0,93,0.00,,,0.00,0,weatherlink.com 1.10,2013-03-05 10:30:00,
2013-03-05 02:45:00,43.6,42.0,30.06,SE,131,1.0,5.0,94,0.00,,,0.00,0,weatherlink.com 1.10,2013-03-05 10:45:00,
2013-03-05 03:00:00,43.3,42.0,30.06,SE,144,0.0,2.0,94,0.00,,,0.00,0,weatherlink.com 1.10,2013-03-05 11:00:00,
2013-03-05 03:15:00,42.9,42.0,30.06,SE,144,4.0,5.0,95,0.00,,,0.00,0,weatherlink.com 1.10,2013-03-05 11:15:00,
2013-03-05 03:30:00,42.9,42.0,30.07,SSE,154,1.0,4.0,95,0.00,,,0.00,0,weatherlink.com 1.10,2013-03-05 11:30:00,
2013-03-05 03:45:00,43.4,42.0,30.06,ESE,123,2.0,5.0,96,0.00,,,0.00,0,weatherlink.com 1.10,2013-03-05 11:45:00,
2013-03-05 04:00:00,44.6,44.0,30.06,SE,133,1.0,4.0,96,0.00,,,0.00,0,weatherlink.com 1.10,2013-03-05 12:00:00,
2013-03-05 04:16:00,44.7,43.0,30.06,SSE,148,1.0,4.0,95,0.00,,,0.00,0,weatherlink.com 1.10,2013-03-05 12:16:00,
2013-03-05 04:31:00,44.8,43.0,30.05,East,94,3.0,6.0,94,0.00,,,0.00,0,weatherlink.com 1.10,2013-03-05 12:31:00,
2013-03-05 04:46:00,44.7,43.0,30.05,SE,142,2.0,3.0,94,0.00,,,0.00,0,weatherlink.com 1.10,2013-03-05 12:46:00,
2013-03-05 05:01:00,44.4,43.0,30.05,SE,137,2.0,5.0,94,0.00,,,0.00,0,weatherlink.com 1.10,2013-03-05 13:01:00,
2013-03-05 05:16:00,44.1,43.0,30.05,SE,137,0.0,4.0,95,0.00,,,0.00,0,weatherlink.com 1.10,2013-03-05 13:16:00,
2013-03-05 05:31:00,43.5,42.0,30.05,SE,130,3.0,6.0,95,0.00,,,0.00,0,weatherlink.com 1.10,2013-03-05 13:31:00,
2013-03-05 05:46:00,43.2,42.0,30.05,SE,130,1.0,4.0,95,0.00,,,0.00,0,weatherlink.com 1.10,2013-03-05 13:46:00,
2013-03-05 06:01:00,43.1,42.0,30.06,SE,143,2.0,5.0,96,0.00,,,0.00,0,weatherlink.com 1.10,2013-03-05 14:01:00,
2013-03-05 06:16:00,43.8,43.0,30.06,SE,131,5.0,5.0,96,0.00,,,0.00,0,weatherlink.com 1.10,2013-03-05 14:16:00,
2013-03-05 06:31:00,44.1,43.0,30.05,SSE,151,0.0,5.0,96,0.00,,,0.00,0,weatherlink.com 1.10,2013-03-05 14:31:00,
2013-03-05 06:47:00,44.0,43.0,30.05,SSW,196,2.0,6.0,96,0.00,,,0.00,7,weatherlink.com 1.10,2013-03-05 14:47:00,
2013-03-05 07:02:00,44.5,44.0,30.06,SSW,200,3.0,4.0,96,0.00,,,0.00,18,weatherlink.com 1.10,2013-03-05 15:02:00,
2013-03-05 07:17:00,45.0,44.0,30.05,SE,143,0.0,5.0,96,0.00,,,0.00,35,weatherlink.com 1.10,2013-03-05 15:17:00,
2013-03-05 07:32:00,45.5,45.0,30.06,SSE,165,1.0,4.0,96,0.00,,,0.00,53,weatherlink.com 1.10,2013-03-05 15:32:00,
2013-03-05 07:46:00,45.7,44.0,30.06,SSE,156,1.0,4.0,95,0.00,,,0.00,58,weatherlink.com 1.10,2013-03-05 15:46:00,
2013-03-05 08:02:00,46.2,45.0,30.06,SE,128,5.0,6.0,95,0.00,,,0.00,74,weatherlink.com 1.10,2013-03-05 16:02:00,
2013-03-05 08:16:00,47.4,46.0,30.05,SE,136,6.0,8.0,93,0.00,,,0.00,98,weatherlink.com 1.10,2013-03-05 16:16:00,
2013-03-05 08:32:00,48.1,45.0,30.05,SSE,158,2.0,8.0,90,0.00,,,0.00,118,weatherlink.com 1.10,2013-03-05 16:32:00,
2013-03-05 08:47:00,48.6,45.0,30.05,SE,133,2.0,8.0,88,0.00,,,0.00,137,weatherlink.com 1.10,2013-03-05 16:47:00,
2013-03-05 09:03:00,49.4,45.0,30.04,SSE,161,6.0,14.0,86,0.00,,,0.00,195,weatherlink.com 1.10,2013-03-05 17:03:00,
2013-03-05 09:17:00,50.2,46.0,30.04,SE,143,4.0,12.0,84,0.00,,,0.00,246,weatherlink.com 1.10,2013-03-05 17:17:00,
2013-03-05 09:33:00,50.4,45.0,30.04,SSW,199,6.0,15.0,83,0.00,,,0.00,234,weatherlink.com 1.10,2013-03-05 17:33:00,
2013-03-05 09:48:00,51.0,46.0,30.05,SSE,152,10.0,13.0,82,0.00,,,0.00,308,weatherlink.com 1.10,2013-03-05 17:48:00,
2013-03-05 10:03:00,50.5,46.0,30.05,SSE,165,13.0,15.0,83,0.00,,,0.00,186,weatherlink.com 1.10,2013-03-05 18:03:00,
2013-03-05 10:17:00,50.3,46.0,30.05,SSW,194,7.0,18.0,85,0.00,,,0.00,144,weatherlink.com 1.10,2013-03-05 18:17:00,
2013-03-05 10:33:00,50.4,46.0,30.05,SSW,194,6.0,13.0,85,0.00,,,0.00,148,weatherlink.com 1.10,2013-03-05 18:33:00,
2013-03-05 10:49:00,50.6,46.0,30.04,South,189,4.0,15.0,85,0.00,,,0.00,190,weatherlink.com 1.10,2013-03-05 18:49:00,
2013-03-05 11:04:00,51.0,47.0,30.03,SSE,163,5.0,13.0,86,0.00,,,0.00,192,weatherlink.com 1.10,2013-03-05 19:04:00,
2013-03-05 11:19:00,51.4,47.0,30.03,SSE,162,5.0,15.0,84,0.00,,,0.00,301,weatherlink.com 1.10,2013-03-05 19:19:00,
2013-03-05 11:34:00,51.8,47.0,30.03,SSW,200,6.0,15.0,84,0.00,,,0.00,323,weatherlink.com 1.10,2013-03-05 19:34:00,
2013-03-05 11:49:00,52.6,48.0,30.02,SSW,195,12.0,15.0,84,0.00,,,0.00,432,weatherlink.com 1.10,2013-03-05 19:49:00,
2013-03-05 12:04:00,53.1,48.0,30.02,South,179,15.0,16.0,83,0.00,,,0.00,415,weatherlink.com 1.10,2013-03-05 20:04:00,
2013-03-05 12:19:00,53.8,48.0,30.01,South,184,9.0,20.0,81,0.00,,,0.00,418,weatherlink.com 1.10,2013-03-05 20:19:00,
2013-03-05 12:34:00,53.5,48.0,30.00,South,173,10.0,16.0,81,0.00,,,0.00,441,weatherlink.com 1.10,2013-03-05 20:34:00,
2013-03-05 12:50:00,53.5,48.0,30.00,SSE,151,13.0,18.0,82,0.00,,,0.00,362,weatherlink.com 1.10,2013-03-05 20:50:00,
2013-03-05 13:04:00,53.6,48.0,29.98,SSW,203,8.0,18.0,81,0.00,,,0.00,376,weatherlink.com 1.10,2013-03-05 21:04:00,
2013-03-05 13:20:00,53.3,48.0,29.98,SSE,156,8.0,18.0,83,0.00,,,0.00,425,weatherlink.com 1.10,2013-03-05 21:20:00,
2013-03-05 13:35:00,53.7,48.0,29.96,SSW,198,7.0,16.0,80,0.00,,,0.00,388,weatherlink.com 1.10,2013-03-05 21:35:00,
2013-03-05 13:50:00,53.5,48.0,29.96,South,174,9.0,19.0,81,0.00,,,0.00,336,weatherlink.com 1.10,2013-03-05 21:50:00,
2013-03-05 14:04:00,53.5,48.0,29.95,SSE,150,15.0,20.0,81,0.00,,,0.00,503,weatherlink.com 1.10,2013-03-05 22:04:00,
2013-03-05 14:20:00,54.6,49.0,29.95,SE,138,12.0,19.0,80,0.00,,,0.00,670,weatherlink.com 1.10,2013-03-05 22:20:00,
2013-03-05 14:35:00,54.5,48.0,29.94,SE,144,12.0,21.0,79,0.00,,,0.00,559,weatherlink.com 1.10,2013-03-05 22:35:00,
2013-03-05 14:50:00,55.6,49.0,29.94,East,98,11.0,21.0,77,0.00,,,0.00,645,weatherlink.com 1.10,2013-03-05 22:50:00,
2013-03-05 15:06:00,54.9,49.0,29.93,South,171,13.0,19.0,79,0.00,,,0.00,415,weatherlink.com 1.10,2013-03-05 23:06:00,
2013-03-05 15:21:00,53.9,48.0,29.93,SSE,159,12.0,19.0,80,0.00,,,0.00,278,weatherlink.com 1.10,2013-03-05 23:21:00,
2013-03-05 15:36:00,53.5,48.0,29.93,SSE,151,13.0,22.0,80,0.00,,,0.00,445,weatherlink.com 1.10,2013-03-05 23:36:00,
2013-03-05 15:51:00,53.0,47.0,29.92,South,179,10.0,21.0,81,0.00,,,0.00,179,weatherlink.com 1.10,2013-03-05 23:51:00,
2013-03-05 16:06:00,51.9,47.0,29.91,SSE,161,9.0,20.0,83,0.00,,,0.00,160,weatherlink.com 1.10,2013-03-06 00:06:00,
2013-03-05 16:21:00,51.8,47.0,29.91,SSE,159,12.0,21.0,84,0.00,,,0.00,116,weatherlink.com 1.10,2013-03-06 00:21:00,
2013-03-05 16:36:00,51.3,47.0,29.90,South,184,11.0,22.0,85,0.00,,,0.00,58,weatherlink.com 1.10,2013-03-06 00:36:00,
2013-03-05 16:51:00,51.0,47.0,29.89,SE,142,13.0,24.0,85,0.00,,,0.00,72,weatherlink.com 1.10,2013-03-06 00:51:00,
2013-03-05 17:06:00,51.1,47.0,29.88,SSE,151,8.0,20.0,85,0.00,,,0.00,33,weatherlink.com 1.10,2013-03-06 01:06:00,
2013-03-05 17:21:00,51.0,47.0,29.87,South,175,6.0,18.0,85,0.00,,,0.00,19,weatherlink.com 1.10,2013-03-06 01:21:00,
2013-03-05 17:37:00,50.9,47.0,29.87,SSE,157,6.0,20.0,86,0.00,,,0.00,12,weatherlink.com 1.10,2013-03-06 01:37:00,
2013-03-05 17:52:00,50.9,47.0,29.87,SSE,160,8.0,20.0,86,0.00,,,0.00,5,weatherlink.com 1.10,2013-03-06 01:52:00,
2013-03-05 18:07:00,50.8,47.0,29.87,SE,126,12.0,27.0,87,0.00,,,0.00,0,weatherlink.com 1.10,2013-03-06 02:07:00,
2013-03-05 18:22:00,50.8,47.0,29.87,South,184,16.0,24.0,88,0.00,,,0.00,0,weatherlink.com 1.10,2013-03-06 02:22:00,
2013-03-05 18:37:00,50.2,47.0,29.86,South,182,9.0,22.0,90,0.00,,,0.00,0,weatherlink.com 1.10,2013-03-06 02:37:00,
2013-03-05 18:52:00,49.8,48.0,29.85,SSE,162,11.0,22.0,92,0.00,,,0.00,0,weatherlink.com 1.10,2013-03-06 02:52:00,
2013-03-05 19:06:00,49.9,48.0,29.84,South,182,12.0,22.0,93,0.00,,,0.00,0,weatherlink.com 1.10,2013-03-06 03:06:00,
2013-03-05 19:22:00,50.0,48.0,29.83,SSE,155,21.0,27.0,92,0.00,,,0.00,0,weatherlink.com 1.10,2013-03-06 03:22:00,
2013-03-05 19:37:00,50.2,48.0,29.83,SE,126,10.0,23.0,92,0.00,,,0.00,0,weatherlink.com 1.10,2013-03-06 03:37:00,
2013-03-05 19:53:00,50.1,48.0,29.83,South,175,21.0,27.0,92,0.02,,,0.02,0,weatherlink.com 1.10,2013-03-06 03:53:00,
2013-03-05 20:08:00,49.8,48.0,29.84,South,185,22.0,26.0,93,0.09,,,0.09,0,weatherlink.com 1.10,2013-03-06 04:08:00,
2013-03-05 20:23:00,49.7,48.0,29.83,SSE,159,12.0,27.0,94,0.14,,,0.14,0,weatherlink.com 1.10,2013-03-06 04:23:00,
2013-03-05 20:38:00,49.8,48.0,29.83,SSE,155,18.0,25.0,94,0.17,,,0.17,0,weatherlink.com 1.10,2013-03-06 04:38:00,
2013-03-05 20:53:00,50.0,49.0,29.82,SE,142,11.0,26.0,95,0.18,,,0.20,0,weatherlink.com 1.10,2013-03-06 04:53:00,
2013-03-05 21:08:00,50.1,49.0,29.82,ESE,119,14.0,29.0,95,0.13,,,0.22,0,weatherlink.com 1.10,2013-03-06 05:08:00,
2013-03-05 21:23:00,50.2,49.0,29.82,SSE,153,21.0,27.0,95,0.10,,,0.24,0,weatherlink.com 1.10,2013-03-06 05:23:00,
2013-03-05 21:38:00,50.3,49.0,29.81,SSE,148,16.0,31.0,95,0.08,,,0.25,0,weatherlink.com 1.10,2013-03-06 05:38:00,
2013-03-05 21:53:00,50.2,49.0,29.80,SSE,156,13.0,28.0,95,0.06,,,0.26,0,weatherlink.com 1.10,2013-03-06 05:53:00,
2013-03-05 22:08:00,50.1,49.0,29.81,SSE,147,20.0,31.0,95,0.05,,,0.27,0,weatherlink.com 1.10,2013-03-06 06:08:00,
2013-03-05 22:25:00,50.2,49.0,29.80,SSE,159,16.0,29.0,96,0.06,,,0.30,0,weatherlink.com 1.10,2013-03-06 06:25:00,
2013-03-05 22:39:00,50.3,49.0,29.81,SSW,205,9.0,28.0,96,0.08,,,0.33,0,weatherlink.com 1.10,2013-03-06 06:39:00,
2013-03-05 22:54:00,50.3,49.0,29.82,South,170,12.0,32.0,96,0.10,,,0.36,0,weatherlink.com 1.10,2013-03-06 06:54:00,
2013-03-05 23:09:00,50.8,50.0,29.82,WSW,244,13.0,33.0,97,0.09,,,0.36,0,weatherlink.com 1.10,2013-03-06 07:09:00,
2013-03-05 23:24:00,51.0,50.0,29.82,SSW,197,15.0,34.0,97,0.09,,,0.38,0,weatherlink.com 1.10,2013-03-06 07:24:00,
2013-03-05 23:38:00,51.3,51.0,29.81,South,177,25.0,29.0,97,0.06,,,0.39,0,weatherlink.com 1.10,2013-03-06 07:38:00,
2013-03-05 23:53:00,51.7,51.0,29.82,SSW,197,16.0,34.0,98,0.03,,,0.39,0,weatherlink.com 1.10,2013-03-06 07:53:00,